FW6834 Weather Reports


Display with metric or nautical units.
time (UTC)temp
F
wind
direction
speed
MPH
gust
MPH
rain 1hr
in
rain 24hr
in
rain mn
in
humidity
%
barometer
mb
20260901021602 91 132 3.0 6.0 0.00 0.00 0.00 34 1054.5
20260901015102 92 154 3.0 8.0 0.00 0.00 0.00 32 1054.2
20260901013603 93 206 5.0 8.0 0.00 0.00 0.00 31 1053.8
20260901012602 93 122 4.0 8.0 0.00 0.00 0.00 30 1053.8
20260901011102 94 156 8.0 9.0 0.00 0.00 0.00 30 1053.8
20260901005602 95 169 7.0 12.0 0.00 0.00 0.00 29 1053.5
20260901004102 96 170 5.0 13.0 0.00 0.00 0.00 28 1053.5
20260901003102 97 231 6.0 9.0 0.00 0.00 0.00 28 1053.5
20260901001602 97 115 6.0 11.0 0.00 0.00 0.00 28 1053.5
20260831234602 99 41 6.0 11.0 0.00 0.00 0.00 27 1053.5
20260831233602 99 199 7.0 9.0 0.00 0.00 0.00 27 1053.5
20260831230603 100 142 9.0 11.0 0.00 0.00 0.00 27 1053.5
20260831225103 101 200 10.0 13.0 0.00 0.00 0.00 27 1053.5
20260831223602 101 190 6.0 11.0 0.00 0.00 0.00 27 1053.5
20260831222102 102 161 7.0 11.0 0.00 0.00 0.00 27 1053.5
20260831220605 102 177 7.0 8.0 0.00 0.00 0.00 26 1053.5
20260831215102 103 121 10.0 11.0 0.00 0.00 0.00 26 1053.8
20260831213601 103 207 3.0 10.0 0.00 0.00 0.00 26 1053.8
20260831212102 105 269 8.0 11.0 0.00 0.00 0.00 25 1053.8
20260831210602 105 185 6.0 10.0 0.00 0.00 0.00 26 1054.2
20260831205601 104 194 7.0 13.0 0.00 0.00 0.00 26 1054.2
20260831204104 104 191 9.0 10.0 0.00 0.00 0.00 25 1054.2
20260831201601 105 196 11.0 11.0 0.00 0.00 0.00 27 1054.5
20260831195101 105 135 9.0 10.0 0.00 0.00 0.00 25 1054.9
20260831192102 105 204 4.0 11.0 0.00 0.00 0.00 25 1055.2
20260831191102 105 110 5.0 9.0 0.00 0.00 0.00 25 1055.2
20260831185603 103 120 4.0 10.0 0.00 0.00 0.00 27 1055.5
20260831184103 103 180 7.0 8.0 0.00 0.00 0.00 27 1055.5
20260831182602 102 251 6.0 9.0 0.00 0.00 0.00 28 1055.9
20260831181102 102 89 3.0 11.0 0.00 0.00 0.00 29 1055.9
20260831175603 102 182 4.0 9.0 0.00 0.00 0.00 29 1055.9
20260831174602 102 192 9.0 11.0 0.00 0.00 0.00 31 1056.2
20260831164602 99 32 8.0 12.0 0.00 0.00 0.00 35 1056.6
20260831163102 98 208 9.0 9.0 0.00 0.00 0.00 35 1056.6
20260831161602 98 179 6.0 11.0 0.00 0.00 0.00 36 1056.6
20260831154602 96 289 7.0 14.0 0.00 0.00 0.00 38 1056.6
20260831153105 96 211 7.0 11.0 0.00 0.00 0.00 39 1056.6
20260831151601 94 199 3.0 13.0 0.00 0.00 0.00 40 1056.9
20260831145102 93 256 7.0 10.0 0.00 0.00 0.00 42 1056.9
20260831143602 92 169 10.0 13.0 0.00 0.00 0.00 43 1056.9
20260831142102 90 207 5.0 11.0 0.00 0.00 0.00 45 1056.9
20260831140602 89 196 2.0 8.0 0.00 0.00 0.00 46 1056.9
20260831135101 88 153 7.0 8.0 0.00 0.00 0.00 47 1056.9
20260831133602 86 198 5.0 6.0 0.00 0.00 0.00 48 1056.6
20260831132102 85 230 6.0 8.0 0.00 0.00 0.00 50 1056.6
20260831130602 83 183 3.0 8.0 0.00 0.00 0.00 51 1056.6
20260831125102 82 182 3.0 6.0 0.00 0.00 0.00 52 1056.2
20260831123602 80 152 2.0 7.0 0.00 0.00 0.00 55 1055.9
20260831122601 80 202 5.0 6.0 0.00 0.00 0.00 53 1055.9
20260831121102 80 178 2.0 6.0 0.00 0.00 0.00 53 1055.5
20260831115603 80 154 3.0 7.0 0.00 0.00 0.00 53 1055.5
20260831114102 80 195 3.0 5.0 0.00 0.00 0.00 52 1055.2
20260831113101 80 192 3.0 4.0 0.00 0.00 0.00 52 1055.2
20260831104602 81 222 3.0 7.0 0.00 0.00 0.00 50 1054.5
20260831103601 81 167 3.0 8.0 0.00 0.00 0.00 50 1054.5
20260831102102 82 115 2.0 7.0 0.00 0.00 0.00 49 1054.5
20260831100602 82 143 3.0 8.0 0.00 0.00 0.00 48 1054.5
20260831095102 83 212 4.0 8.0 0.00 0.00 0.00 47 1054.2
20260831092102 84 170 3.0 11.0 0.00 0.00 0.00 46 1054.2
20260831090602 84 86 6.0 10.0 0.00 0.00 0.00 45 1054.2
20260831085102 84 256 12.0 13.0 0.00 0.00 0.00 45 1053.8
20260831083602 85 239 8.0 10.0 0.00 0.00 0.00 45 1054.2
20260831082104 85 158 6.0 13.0 0.00 0.00 0.00 44 1054.2
20260831081102 86 202 7.0 12.0 0.00 0.00 0.00 44 1054.2
20260831075602 86 178 6.0 11.0 0.00 0.00 0.00 43 1054.2
20260831072601 86 143 3.0 7.0 0.00 0.00 0.00 42 1053.8
20260831071102 86 141 3.0 8.0 0.00 0.00 0.00 41 1053.8
20260831065602 87 128 4.0 10.0 0.00 0.00 0.00 40 1053.8
20260831064104 87 164 8.0 10.0 0.00 0.00 0.00 40 1053.8
20260831063101 87 204 3.0 11.0 0.00 0.00 0.00 40 1053.8
20260831061602 88 174 5.0 10.0 0.00 0.00 0.00 39 1053.8
20260831054602 88 167 7.0 8.0 0.00 0.00 0.00 39 1053.8
20260831053102 88 213 5.0 14.0 0.00 0.00 0.00 39 1053.5
20260831051602 88 155 9.0 9.0 0.00 0.00 0.00 40 1053.5
20260831044602 89 178 7.0 12.0 0.00 0.00 0.00 40 1053.5
20260831043102 89 184 7.0 10.0 0.00 0.00 0.00 40 1053.5
20260831041601 89 198 7.0 9.0 0.00 0.00 0.00 39 1053.5
20260831035101 90 191 3.0 9.0 0.00 0.00 0.00 38 1053.5
20260831033602 91 173 8.0 10.0 0.00 0.00 0.00 37 1053.5
20260831030602 92 147 7.0 10.0 0.00 0.00 0.00 37 1053.2
20260831025102 92 177 9.0 11.0 0.00 0.00 0.00 37 1053.2
20260831024102 92 195 5.0 10.0 0.00 0.00 0.00 36 1052.8
20260831022602 93 227 7.0 12.0 0.00 0.00 0.00 35 1052.5